Theta_e
340 333 340 342 341 341 338 335 335 335 335 333 331 334 336 334 335 337 338 337 333 334 334 335 335 335 335 337 337 334 331 332 336 334 336 338 341 343 345 340 335 333 328
336 339 340 341 342 339 341 339 338 341 340 339 338 338 337 338 340 340 332 331 332 333 334 336 336 335 335 336 339 338 333 330 332 332 339 343 344 343 341 334 327 336 332
337 341 336 341 339 337 340 337 336 335 337 339 338 338 339 340 338 332 336 332 332 331 330 335 336 336 336 337 337 339 335 335 340 339 337 338 341 338 333 332 331 326 326
338 342 340 340 336 338 336 337 338 338 340 339 338 340 339 339 340 333 334 332 332 336 338 335 331 334 337 335 337 337 344 345 345 344 341 341 340 337 337 336 335 332 331
336 339 339 337 330 337 333 337 335 336 329 328 336 333 336 338 335 334 334 333 334 339 341 340 340 338 336 339 336 343 346 346 344 338 337 341 337 340 343 334 331 331 329
345 338 338 328 335 339 337 329 334 333 325 327 329 334 336 333 333 334 336 338 338 336 335 335 338 339 339 339 336 342 346 346 344 341 339 336 333 337 338 332 334 330 331
343 330 339 337 337 330 328 334 328 328 329 328 331 333 332 332 334 336 335 333 333 333 336 337 336 338 338 338 338 338 344 345 342 338 336 328 330 330 334 335 329 335 335
343 329 341 340 334 330 330 332 329 329 330 330 331 331 331 331 332 335 337 337 335 337 339 339 339 338 338 338 337 337 339 341 342 340 335 329 328 332 337 333 327 327 327
334 330 336 332 333 331 330 329 335 339 341 341 341 341 341 341 341 342 341 338 339 339 339 337 337 337 337 338 336 340 344 344 344 345 341 338 336 335 336 337 337 337 336
344 335 328 329 330 327 329 336 341 343 342 341 343 342 340 344 344 340 339 338 339 338 336 337 338 337 338 338 335 340 345 344 344 345 343 339 340 341 340 337 336 337 338
348 348 334 332 328 338 340 343 343 343 342 347 348 348 349 347 342 341 339 340 341 340 335 335 336 337 339 339 341 342 343 344 344 344 339 339 338 337 332 327 324 323 323
349 346 339 343 344 345 345 348 346 348 340 347 348 349 349 345 341 343 341 341 340 345 342 344 342 342 340 340 341 345 345 345 345 337 337 338 337 332 328 325 323 321 320
346 344 346 346 348 347 349 349 349 344 337 342 345 347 348 348 346 343 337 340 343 345 347 348 346 345 345 345 344 343 343 343 331 328 327 331 334 329 328 326 324 320 318
344 343 346 346 348 350 348 350 350 350 349 344 344 347 339 341 338 345 340 342 344 338 346 347 348 350 349 348 346 346 344 344 341 334 335 334 333 331 330 328 325 323 321
342 344 346 348 349 349 347 350 349 346 345 334 347 344 346 347 347 346 336 345 345 344 344 346 346 346 348 347 347 345 346 345 345 338 341 338 335 335 333 333 329 325 322
343 344 345 349 351 347 349 348 348 350 350 346 345 344 348 348 351 348 348 346 347 346 346 348 345 345 347 347 348 346 346 345 344 345 346 343 343 341 339 339 332 329 329
343 344 344 349 348 348 345 347 347 350 353 349 344 348 346 353 354 349 346 349 346 344 343 347 348 348 348 349 348 345 345 345 343 346 345 345 341 342 342 341 336 335 335
342 344 345 347 346 347 345 350 349 352 349 344 342 345 350 352 349 347 343 345 351 353 348 344 347 347 344 345 346 346 345 343 345 346 345 346 343 342 342 341 338 335 337
341 346 347 351 344 346 348 348 349 353 351 351 347 346 353 352 348 344 346 342 344 344 345 343 344 347 346 347 345 345 345 347 346 343 346 347 345 343 342 341 339 336 339
340 345 350 351 348 345 351 349 349 352 354 351 347 344 350 352 349 352 350 349 345 339 345 344 345 347 347 346 344 348 346 345 347 344 347 347 346 343 341 340 340 337 338
339 341 351 350 350 347 349 347 351 352 353 351 354 346 342 354 354 352 352 349 342 334 344 345 347 347 347 346 346 346 348 344 345 343 342 346 342 342 339 340 341 339 337
339 338 352 351 350 347 347 347 349 349 354 350 351 348 339 352 354 352 352 353 355 329 338 346 345 343 346 346 347 346 345 344 341 340 338 340 339 337 334 340 341 337 333
338 338 352 351 350 346 348 349 351 351 352 351 351 339 344 353 349 355 349 354 354 345 331 336 336 334 341 346 341 343 347 345 339 337 336 333 329 328 329 332 332 332 332
338 339 351 352 352 344 349 351 352 354 351 350 348 342 344 355 355 353 352 353 352 347 325 337 338 335 325 328 325 325 325 328 335 340 337 336 331 331 330 329 324 331 329
340 340 343 350 352 343 349 351 352 353 350 351 350 352 346 351 354 355 352 352 353 341 338 324 334 335 330 330 328 325 325 324 326 327 332 331 330 331 330 331 330 326 327
341 341 342 345 347 344 349 351 350 351 351 349 351 353 349 348 356 356 353 353 355 345 339 337 323 329 328 325 327 324 326 329 330 326 326 327 329 330 331 332 331 331 330
Wind_Speed
13 15 14 13 14 14 14 16 16 16 16 14 14 14 13 13 12 14 15 15 15 14 14 13 12 14 15 16 16 16 17 16 16 17 18 19 20 20 18 11 12 16 15
17 16 15 14 14 14 14 15 15 16 16 15 14 14 15 15 16 17 16 16 14 15 15 13 13 13 14 16 16 16 18 18 18 18 17 14 15 16 13 11 11 14 13
17 16 15 15 14 14 16 16 16 16 15 15 15 15 16 16 16 16 16 15 14 15 15 14 14 13 14 15 17 17 17 18 16 17 16 16 12 11 9 10 12 12 12
18 16 15 16 14 15 15 16 16 15 15 14 16 15 15 15 15 15 14 14 15 15 14 14 13 13 14 15 18 20 20 15 14 8 10 11 11 10 9 10 10 12 10
15 14 15 14 15 15 14 15 15 13 14 14 14 14 15 14 14 14 13 13 13 12 11 11 11 12 15 16 18 23 23 15 18 15 14 10 9 8 7 10 9 9 10
13 12 14 14 16 14 14 14 14 13 14 15 15 15 14 13 12 12 12 12 11 10 10 9 8 11 13 17 18 22 21 20 15 14 14 8 8 7 6 7 7 7 6
14 13 14 14 15 13 14 14 14 15 15 15 14 14 12 11 10 9 9 9 8 9 8 6 6 9 14 16 17 19 19 15 13 12 11 9 8 8 7 7 7 6 6
11 15 15 14 14 13 14 14 14 15 15 14 13 12 12 10 10 9 8 8 8 8 8 7 7 11 14 16 16 16 18 15 8 12 11 9 10 9 8 8 7 7 6
12 14 14 14 14 13 14 15 16 16 15 14 12 12 12 11 11 10 10 12 12 11 10 10 11 12 20 20 20 21 20 18 9 10 11 9 10 10 9 8 7 7 6
14 14 14 15 15 14 16 15 13 13 14 14 14 13 14 12 12 12 15 16 15 15 14 13 17 21 23 23 21 18 20 14 8 5 4 7 8 9 9 8 8 7 5
12 10 12 16 17 18 16 16 15 14 15 16 16 13 12 11 14 13 15 17 17 17 20 24 27 24 24 23 22 24 21 13 8 4 4 7 9 10 9 9 8 6 4
17 10 12 20 18 17 15 13 14 13 16 17 14 14 12 13 11 8 12 13 14 15 15 21 25 26 25 23 22 23 17 12 7 5 7 9 9 9 8 9 9 9 7
17 13 11 15 17 15 9 12 15 14 15 14 13 11 9 12 13 9 6 8 14 12 13 16 16 18 22 18 17 19 15 9 10 11 10 9 8 9 9 10 10 10 10
20 13 17 12 15 14 8 12 12 12 10 14 10 11 17 14 11 11 2 11 15 10 11 10 14 11 11 12 11 10 14 8 6 10 12 9 9 8 8 10 13 13 13
20 19 19 12 15 15 14 14 17 15 13 11 11 13 14 19 14 11 14 15 15 18 12 11 15 10 8 13 16 9 9 8 2 7 10 9 8 9 9 14 16 15 15
23 23 17 17 15 15 13 17 20 17 14 11 13 18 16 13 10 5 10 13 15 18 13 16 13 6 10 17 15 8 11 4 5 4 7 8 8 8 10 14 17 13 17
22 21 17 17 13 16 15 19 19 17 20 4 13 13 16 12 16 16 14 14 12 11 12 10 10 12 15 11 9 9 6 5 5 7 5 7 9 7 7 11 15 12 15
21 19 17 17 21 18 20 14 17 16 10 17 16 19 14 13 13 10 15 11 8 8 8 7 8 10 14 11 8 13 7 4 4 6 5 4 9 8 6 9 15 13 10
23 19 17 15 11 27 22 16 16 10 14 8 15 13 14 15 15 15 14 10 12 12 13 13 14 14 12 11 11 10 6 4 2 6 6 5 8 8 6 9 13 12 9
25 19 21 19 12 23 16 19 14 15 16 17 13 10 13 15 16 15 10 8 7 11 17 15 14 13 12 11 14 10 6 5 3 7 5 5 7 9 7 8 13 11 9
27 22 22 21 16 17 19 17 18 16 20 18 8 7 10 14 9 11 9 8 7 11 20 18 14 11 12 17 12 11 7 4 3 1 4 2 6 8 10 11 10 8 12
29 25 24 23 20 21 23 21 18 15 17 10 4 2 10 11 9 11 7 6 7 9 15 18 13 11 13 12 9 10 8 8 7 6 4 4 9 12 11 9 12 13 16
31 28 30 27 24 28 25 21 15 10 13 12 5 3 16 12 8 8 5 6 7 9 12 14 11 10 11 9 5 6 8 6 13 8 5 2 5 5 11 15 15 15 16
33 28 32 30 26 29 26 19 13 17 18 12 6 8 10 14 9 9 11 7 6 4 9 14 12 10 11 9 6 6 5 7 5 6 8 7 8 7 8 11 10 9 12
34 32 29 32 27 28 26 21 19 20 17 12 9 9 9 14 13 7 4 9 6 5 8 10 13 10 8 8 7 7 6 5 3 4 3 4 8 11 12 14 13 11 11
37 35 31 32 31 30 29 24 23 21 17 18 15 16 8 14 15 12 7 7 6 6 8 10 12 11 9 6 5 5 4 4 3 4 5 7 8 10 12 16 14 16 14
Wind_Direction
143 131 122 110 103 104 103 104 106 104 105 104 109 111 110 111 111 110 112 110 112 116 119 122 120 120 127 122 117 111 108 109 108 100 99 102 102 105 99 93 104 103 104
139 131 121 115 111 113 108 105 104 102 101 107 109 108 107 106 107 108 107 105 104 103 105 108 112 116 122 121 118 113 108 108 102 97 98 96 96 104 104 85 106 106 106
136 129 121 119 115 110 108 109 108 107 109 108 107 105 105 106 108 107 108 104 105 98 99 100 99 101 102 110 119 115 113 111 114 112 104 104 97 98 101 103 95 97 101
132 127 122 122 117 114 112 109 108 108 109 106 109 109 109 108 106 107 109 105 106 103 101 101 102 101 98 98 109 115 104 100 93 97 92 101 104 102 98 89 88 94 90
123 126 127 125 120 115 113 116 113 111 106 114 113 112 113 112 113 112 112 105 100 95 93 94 100 105 107 103 109 111 99 91 79 77 147 101 89 94 92 83 81 86 93
131 133 126 126 123 115 115 112 113 110 104 109 112 113 112 109 109 113 112 108 105 103 102 104 110 111 112 110 119 119 100 91 84 84 101 100 102 114 115 90 85 82 89
129 138 131 125 116 118 119 112 108 103 100 100 103 107 109 109 108 104 98 98 103 102 99 97 135 135 119 119 124 126 112 91 96 84 67 95 113 119 113 103 89 99 91
128 140 133 124 118 116 115 108 108 102 103 105 107 108 106 103 98 93 89 94 90 71 70 78 119 151 145 128 125 127 110 104 113 85 79 99 105 106 108 97 86 89 84
115 136 134 125 118 116 110 105 105 100 98 96 100 100 95 90 84 82 83 84 79 69 65 77 87 131 140 138 123 113 105 100 94 95 60 83 92 97 93 93 91 85 80
105 112 119 121 112 110 103 106 105 100 99 105 101 101 99 99 91 96 94 89 84 81 82 90 96 107 125 129 127 115 111 118 104 69 32 79 84 89 92 85 73 64 55
123 94 111 114 110 105 101 99 99 104 115 117 112 108 95 101 96 95 101 98 95 91 87 95 96 108 114 121 119 116 116 132 127 85 91 100 100 94 90 77 65 51 33
148 121 108 108 104 99 102 97 104 114 124 113 110 112 98 88 85 87 108 107 110 105 101 97 102 106 108 113 120 121 128 124 123 95 103 95 95 94 78 59 45 37 26
157 139 126 114 115 106 113 109 97 97 113 120 113 93 109 119 112 122 96 143 119 103 107 108 114 118 113 106 108 121 132 134 84 64 70 72 82 68 57 48 38 36 35
158 149 157 150 127 127 139 118 111 115 95 89 101 102 117 127 103 143 31 132 123 133 113 130 117 121 121 110 103 138 158 148 76 77 84 90 78 75 64 48 36 36 36
158 160 163 149 151 137 132 134 122 110 101 102 103 102 115 92 124 122 111 69 113 108 112 116 105 113 133 97 117 155 180 171 91 88 75 84 84 63 50 38 28 28 30
164 168 173 154 163 153 150 144 138 150 130 103 107 103 109 103 90 119 108 91 92 87 97 89 106 96 128 122 120 117 163 154 65 56 35 43 52 42 35 28 27 42 34
172 172 176 162 164 159 133 138 143 134 144 134 116 121 122 88 96 111 91 75 95 98 103 101 123 116 126 138 127 142 165 113 41 28 38 36 37 36 27 26 25 28 24
179 181 180 168 170 164 162 154 141 149 141 115 114 129 121 88 110 103 136 113 146 131 126 113 142 112 113 119 132 119 132 104 49 3 357 25 22 14 24 18 14 16 10
183 183 155 159 152 154 152 142 144 140 167 116 111 122 124 108 110 104 121 121 151 162 174 144 138 127 132 126 129 151 130 55 66 12 352 345 356 3 5 354 5 6 357
184 182 160 176 163 162 150 152 162 143 165 140 127 127 126 117 102 126 119 151 117 165 146 147 139 117 140 161 145 145 133 106 71 11 325 335 343 348 340 334 347 350 343
186 180 170 184 173 169 159 157 153 134 144 169 151 132 141 127 110 141 133 112 101 132 154 148 145 144 147 141 164 174 151 150 115 331 16 14 337 332 333 327 320 318 327
188 184 173 189 185 170 155 148 140 141 166 179 184 229 172 137 132 138 138 113 98 127 145 160 161 160 172 162 161 165 162 162 179 209 242 235 287 288 300 313 305 319 320
193 190 178 187 186 165 158 161 174 199 179 179 196 181 154 136 121 136 139 139 109 83 152 153 150 138 163 186 187 174 173 207 192 216 249 284 348 342 267 280 289 297 312
196 195 186 189 191 173 174 182 176 197 186 188 215 169 148 135 130 114 150 148 108 71 156 171 168 161 145 139 144 132 145 161 194 209 239 277 302 327 340 348 269 266 303
198 197 198 199 197 185 183 181 178 177 195 196 200 186 151 153 138 163 153 144 147 114 141 160 179 175 166 156 153 154 150 167 189 232 236 318 300 310 319 323 337 320 305
200 200 202 205 203 190 190 186 186 186 183 194 200 190 186 159 153 190 180 174 146 127 142 152 158 180 187 178 191 186 187 210 247 285 285 294 291 321 305 299 306 317 323